Time,TemperatureF,DewpointF,PressureIn,WindDirection,WindDirectionDegrees,WindSpeedMPH,WindSpeedGustMPH,Humidity,HourlyPrecipIn,Conditions,Clouds,dailyrainin,SolarRadiationWatts/m^2,SoftwareType,DateUTC
2013-02-04 00:03:00,26.7,21.4,30.30,WNW,301,1.0,1.0,80,0.00,,CLR,0.00,0.00,VWS V14.01,2013-02-04 08:03:00,
2013-02-04 00:08:00,26.8,21.5,30.31,WNW,301,1.0,1.0,80,0.00,,CLR,0.00,0.00,VWS V14.01,2013-02-04 08:08:00,
2013-02-04 00:13:00,26.9,21.9,30.30,WNW,301,0.0,1.0,81,0.00,,CLR,0.00,0.00,VWS V14.01,2013-02-04 08:13:00,
2013-02-04 00:18:00,26.9,21.6,30.31,WNW,301,0.0,0.0,80,0.00,,CLR,0.00,0.00,VWS V14.01,2013-02-04 08:18:00,
2013-02-04 00:23:00,26.7,20.8,30.30,WNW,301,0.0,0.0,78,0.00,,CLR,0.00,0.00,VWS V14.01,2013-02-04 08:23:00,
2013-02-04 00:28:00,26.6,21.0,30.30,WNW,301,0.0,0.0,79,0.00,,CLR,0.00,0.00,VWS V14.01,2013-02-04 08:28:00,
2013-02-04 00:33:00,26.6,21.0,30.30,WNW,301,0.0,0.0,79,0.00,,CLR,0.00,0.00,VWS V14.01,2013-02-04 08:33:00,
2013-02-04 00:38:00,26.4,20.8,30.30,WNW,301,1.0,1.0,79,0.00,,CLR,0.00,0.00,VWS V14.01,2013-02-04 08:38:00,
2013-02-04 00:43:00,26.2,20.6,30.30,WNW,301,0.0,0.0,79,0.00,,CLR,0.00,0.00,VWS V14.01,2013-02-04 08:43:00,
2013-02-04 00:48:00,26.1,20.5,30.30,WNW,301,0.0,1.0,79,0.00,,CLR,0.00,0.00,VWS V14.01,2013-02-04 08:48:00,
2013-02-04 00:53:00,25.8,20.2,30.30,WNW,301,0.0,0.0,79,0.00,,CLR,0.00,0.00,VWS V14.01,2013-02-04 08:53:00,
2013-02-04 00:58:00,25.6,20.0,30.30,WNW,301,2.0,2.0,79,0.00,,CLR,0.00,0.00,VWS V14.01,2013-02-04 08:58:00,
2013-02-04 01:03:00,25.5,20.5,30.30,NW,305,0.0,1.0,81,0.00,,CLR,0.00,0.00,VWS V14.01,2013-02-04 09:03:00,
2013-02-04 01:08:00,25.5,20.5,30.30,NW,305,0.0,0.0,81,0.00,,CLR,0.00,0.00,VWS V14.01,2013-02-04 09:08:00,
2013-02-04 01:13:00,25.2,19.9,30.30,NW,305,0.0,1.0,80,0.00,,CLR,0.00,0.00,VWS V14.01,2013-02-04 09:13:00,
2013-02-04 01:18:00,24.7,19.1,30.30,NW,305,0.0,1.0,79,0.00,,CLR,0.00,0.00,VWS V14.01,2013-02-04 09:18:00,
2013-02-04 01:23:00,24.7,19.7,30.31,NW,305,0.0,0.0,81,0.00,,CLR,0.00,0.00,VWS V14.01,2013-02-04 09:23:00,
2013-02-04 01:28:00,24.8,20.1,30.31,West,272,5.0,5.0,82,0.00,,CLR,0.00,0.00,VWS V14.01,2013-02-04 09:28:00,
2013-02-04 01:33:00,24.7,19.7,30.31,West,272,0.0,3.0,81,0.00,,CLR,0.00,0.00,VWS V14.01,2013-02-04 09:33:00,
2013-02-04 01:38:00,24.5,19.5,30.31,West,272,1.0,2.0,81,0.00,,CLR,0.00,0.00,VWS V14.01,2013-02-04 09:38:00,
2013-02-04 01:43:00,24.5,19.8,30.31,SW,236,1.0,3.0,82,0.00,,CLR,0.00,0.00,VWS V14.01,2013-02-04 09:43:00,
2013-02-04 01:48:00,24.0,19.0,30.31,SW,236,0.0,2.0,81,0.00,,CLR,0.00,0.00,VWS V14.01,2013-02-04 09:48:00,
2013-02-04 01:53:00,23.6,18.6,30.31,SW,236,1.0,1.0,81,0.00,,CLR,0.00,0.00,VWS V14.01,2013-02-04 09:53:00,
2013-02-04 01:58:00,23.6,18.9,30.31,SW,236,2.0,2.0,82,0.00,,CLR,0.00,0.00,VWS V14.01,2013-02-04 09:58:00,
2013-02-04 02:03:00,23.6,19.2,30.31,SW,236,0.0,1.0,83,0.00,,CLR,0.00,0.00,VWS V14.01,2013-02-04 10:03:00,
2013-02-04 02:08:00,23.6,19.2,30.31,SW,236,0.0,1.0,83,0.00,,CLR,0.00,0.00,VWS V14.01,2013-02-04 10:08:00,
2013-02-04 02:13:00,23.7,19.3,30.30,SW,236,0.0,1.0,83,0.00,,CLR,0.00,0.00,VWS V14.01,2013-02-04 10:13:00,
2013-02-04 02:18:00,23.7,19.3,30.30,SW,236,0.0,1.0,83,0.00,,CLR,0.00,0.00,VWS V14.01,2013-02-04 10:18:00,
2013-02-04 02:23:00,23.7,19.3,30.30,SW,236,2.0,2.0,83,0.00,,CLR,0.00,0.00,VWS V14.01,2013-02-04 10:23:00,
2013-02-04 02:28:00,23.7,19.3,30.30,SW,236,0.0,2.0,83,0.00,,CLR,0.00,0.00,VWS V14.01,2013-02-04 10:28:00,
2013-02-04 02:33:00,23.6,19.2,30.30,SW,236,0.0,0.0,83,0.00,,CLR,0.00,0.00,VWS V14.01,2013-02-04 10:33:00,
2013-02-04 02:38:00,23.7,19.3,30.30,SW,236,0.0,0.0,83,0.00,,CLR,0.00,0.00,VWS V14.01,2013-02-04 10:38:00,
2013-02-04 02:43:00,23.7,19.3,30.30,SW,236,0.0,0.0,83,0.00,,CLR,0.00,0.00,VWS V14.01,2013-02-04 10:43:00,
2013-02-04 02:48:00,23.7,19.3,30.30,SW,236,0.0,0.0,83,0.00,,CLR,0.00,0.00,VWS V14.01,2013-02-04 10:48:00,
2013-02-04 02:53:00,23.7,19.3,30.30,SW,236,0.0,0.0,83,0.00,,CLR,0.00,0.00,VWS V14.01,2013-02-04 10:53:00,
2013-02-04 02:58:00,23.8,19.4,30.30,SW,236,1.0,2.0,83,0.00,,CLR,0.00,0.00,VWS V14.01,2013-02-04 10:58:00,
2013-02-04 03:03:00,24.2,20.1,30.29,SW,236,0.0,0.0,84,0.00,,CLR,0.00,0.00,VWS V14.01,2013-02-04 11:03:00,
2013-02-04 03:08:00,24.3,20.5,30.29,SW,236,0.0,0.0,85,0.00,,CLR,0.00,0.00,VWS V14.01,2013-02-04 11:08:00,
2013-02-04 03:13:00,24.3,20.2,30.29,SW,236,0.0,1.0,84,0.00,,CLR,0.00,0.00,VWS V14.01,2013-02-04 11:13:00,
2013-02-04 03:18:00,24.3,20.2,30.29,SW,236,0.0,0.0,84,0.00,,CLR,0.00,0.00,VWS V14.01,2013-02-04 11:18:00,
2013-02-04 03:23:00,24.3,20.2,30.30,SW,236,0.0,1.0,84,0.00,,CLR,0.00,0.00,VWS V14.01,2013-02-04 11:23:00,
2013-02-04 03:28:00,24.4,20.3,30.30,SW,236,0.0,0.0,84,0.00,,CLR,0.00,0.00,VWS V14.01,2013-02-04 11:28:00,
2013-02-04 03:33:00,24.2,20.1,30.30,SW,236,1.0,1.0,84,0.00,,CLR,0.00,0.00,VWS V14.01,2013-02-04 11:33:00,
2013-02-04 03:38:00,23.6,18.9,30.29,SW,236,1.0,1.0,82,0.00,,CLR,0.00,0.00,VWS V14.01,2013-02-04 11:38:00,
2013-02-04 03:43:00,23.4,19.0,30.29,SW,236,0.0,1.0,83,0.00,,CLR,0.00,0.00,VWS V14.01,2013-02-04 11:43:00,
2013-02-04 03:48:00,23.4,19.0,30.30,SW,236,0.0,0.0,83,0.00,,CLR,0.00,0.00,VWS V14.01,2013-02-04 11:48:00,
2013-02-04 03:53:00,23.5,19.4,30.29,SW,236,0.0,0.0,84,0.00,,CLR,0.00,0.00,VWS V14.01,2013-02-04 11:53:00,
2013-02-04 03:58:00,23.4,19.0,30.29,SW,236,0.0,0.0,83,0.00,,CLR,0.00,0.00,VWS V14.01,2013-02-04 11:58:00,
2013-02-04 04:03:00,23.3,18.9,30.29,SW,236,0.0,0.0,83,0.00,,CLR,0.00,0.00,VWS V14.01,2013-02-04 12:03:00,
2013-02-04 04:08:00,23.2,18.8,30.29,SW,236,0.0,0.0,83,0.00,,CLR,0.00,0.00,VWS V14.01,2013-02-04 12:08:00,
2013-02-04 04:13:00,22.7,18.3,30.29,SW,236,0.0,0.0,83,0.00,,CLR,0.00,0.00,VWS V14.01,2013-02-04 12:13:00,
2013-02-04 04:18:00,22.5,18.4,30.28,SW,236,0.0,1.0,84,0.00,,CLR,0.00,0.00,VWS V14.01,2013-02-04 12:18:00,
2013-02-04 04:23:00,22.4,18.3,30.28,SW,236,0.0,0.0,84,0.00,,CLR,0.00,0.00,VWS V14.01,2013-02-04 12:23:00,
2013-02-04 04:28:00,22.4,18.3,30.28,SW,236,0.0,0.0,84,0.00,,CLR,0.00,0.00,VWS V14.01,2013-02-04 12:28:00,
2013-02-04 04:33:00,22.4,18.6,30.28,SW,236,0.0,1.0,85,0.00,,CLR,0.00,0.00,VWS V14.01,2013-02-04 12:33:00,
2013-02-04 04:38:00,22.2,18.4,30.28,SW,236,0.0,1.0,85,0.00,,CLR,0.00,0.00,VWS V14.01,2013-02-04 12:38:00,
2013-02-04 04:44:00,22.0,18.2,30.28,SW,236,0.0,1.0,85,0.00,,CLR,0.00,0.00,VWS V14.01,2013-02-04 12:44:00,
2013-02-04 04:49:00,21.9,18.1,30.28,SW,236,0.0,0.0,85,0.00,,CLR,0.00,0.00,VWS V14.01,2013-02-04 12:49:00,
2013-02-04 04:54:00,22.0,18.5,30.28,SW,236,0.0,1.0,86,0.00,,CLR,0.00,0.00,VWS V14.01,2013-02-04 12:54:00,
2013-02-04 04:59:00,21.8,18.0,30.28,SW,236,0.0,0.0,85,0.00,,CLR,0.00,0.00,VWS V14.01,2013-02-04 12:59:00,
2013-02-04 05:04:00,21.8,18.3,30.28,SW,236,0.0,0.0,86,0.00,,CLR,0.00,0.00,VWS V14.01,2013-02-04 13:04:00,
2013-02-04 05:09:00,21.8,18.3,30.27,SW,236,0.0,0.0,86,0.00,,CLR,0.00,0.00,VWS V14.01,2013-02-04 13:09:00,
2013-02-04 05:14:00,21.7,18.2,30.27,SW,236,0.0,0.0,86,0.00,,CLR,0.00,0.00,VWS V14.01,2013-02-04 13:14:00,
2013-02-04 05:19:00,21.5,18.0,30.27,SW,236,0.0,0.0,86,0.00,,CLR,0.00,0.00,VWS V14.01,2013-02-04 13:19:00,
2013-02-04 05:24:00,21.5,18.0,30.27,SW,236,0.0,0.0,86,0.00,,CLR,0.00,0.00,VWS V14.01,2013-02-04 13:24:00,
2013-02-04 05:29:00,21.3,17.8,30.26,SW,236,0.0,0.0,86,0.00,,CLR,0.00,0.00,VWS V14.01,2013-02-04 13:29:00,
2013-02-04 05:34:00,21.2,17.7,30.26,SW,236,0.0,0.0,86,0.00,,CLR,0.00,0.00,VWS V14.01,2013-02-04 13:34:00,
2013-02-04 05:39:00,21.2,17.7,30.27,SW,236,0.0,0.0,86,0.00,,CLR,0.00,0.00,VWS V14.01,2013-02-04 13:39:00,
2013-02-04 05:44:00,21.1,17.6,30.27,SW,236,0.0,0.0,86,0.00,,CLR,0.00,0.00,VWS V14.01,2013-02-04 13:44:00,
2013-02-04 05:49:00,21.0,17.5,30.27,SW,236,0.0,0.0,86,0.00,,CLR,0.00,0.00,VWS V14.01,2013-02-04 13:49:00,
2013-02-04 05:54:00,20.8,17.0,30.27,SW,236,1.0,1.0,85,0.00,,CLR,0.00,0.00,VWS V14.01,2013-02-04 13:54:00,
2013-02-04 05:59:00,20.6,16.8,30.27,SW,236,0.0,1.0,85,0.00,,CLR,0.00,0.00,VWS V14.01,2013-02-04 13:59:00,
2013-02-04 06:04:00,20.4,16.6,30.27,SW,236,0.0,0.0,85,0.00,,CLR,0.00,0.00,VWS V14.01,2013-02-04 14:04:00,
2013-02-04 06:09:00,20.1,16.3,30.27,SW,236,0.0,0.0,85,0.00,,CLR,0.00,0.00,VWS V14.01,2013-02-04 14:09:00,
2013-02-04 06:14:00,20.0,16.2,30.27,SW,236,0.0,1.0,85,0.00,,CLR,0.00,0.00,VWS V14.01,2013-02-04 14:14:00,
2013-02-04 06:19:00,20.1,16.6,30.27,SW,236,0.0,0.0,86,0.00,,FEW260,0.00,0.00,VWS V14.01,2013-02-04 14:19:00,
2013-02-04 06:24:00,20.0,16.5,30.27,SW,236,0.0,0.0,86,0.00,,FEW260,0.00,0.00,VWS V14.01,2013-02-04 14:24:00,
2013-02-04 06:29:00,19.9,16.4,30.27,SW,236,0.0,0.0,86,0.00,,FEW260,0.00,0.00,VWS V14.01,2013-02-04 14:29:00,
2013-02-04 06:34:00,19.9,16.4,30.27,SW,236,0.0,0.0,86,0.00,,FEW260,0.00,0.00,VWS V14.01,2013-02-04 14:34:00,
2013-02-04 06:39:00,19.8,16.3,30.27,SW,236,0.0,1.0,86,0.00,,FEW260,0.00,0.00,VWS V14.01,2013-02-04 14:39:00,
2013-02-04 06:44:00,19.8,16.3,30.28,SW,236,1.0,1.0,86,0.00,,FEW260,0.00,0.00,VWS V14.01,2013-02-04 14:44:00,
2013-02-04 06:49:00,19.9,16.7,30.28,SW,236,0.0,2.0,87,0.00,,FEW260,0.00,0.00,VWS V14.01,2013-02-04 14:49:00,
2013-02-04 06:54:00,20.0,16.8,30.28,SW,236,0.0,0.0,87,0.00,,FEW260,0.00,0.00,VWS V14.01,2013-02-04 14:54:00,
2013-02-04 06:59:00,20.0,16.8,30.28,SW,236,1.0,1.0,87,0.00,,FEW260,0.00,5.00,VWS V14.01,2013-02-04 14:59:00,
2013-02-04 07:04:00,20.0,16.8,30.28,SW,236,0.0,0.0,87,0.00,,SCT260,0.00,7.00,VWS V14.01,2013-02-04 15:04:00,
2013-02-04 07:09:00,19.9,16.7,30.28,SW,236,0.0,1.0,87,0.00,,SCT260,0.00,11.00,VWS V14.01,2013-02-04 15:09:00,
2013-02-04 07:14:00,19.9,16.7,30.28,SW,236,0.0,0.0,87,0.00,,SCT260,0.00,12.00,VWS V14.01,2013-02-04 15:14:00,
2013-02-04 07:19:00,19.9,16.7,30.28,SW,236,0.0,0.0,87,0.00,,SCT260,0.00,14.00,VWS V14.01,2013-02-04 15:19:00,
2013-02-04 07:24:00,20.0,16.8,30.28,SW,236,0.0,0.0,87,0.00,,SCT260,0.00,19.00,VWS V14.01,2013-02-04 15:24:00,
2013-02-04 07:29:00,20.0,16.8,30.28,SW,236,0.0,0.0,87,0.00,,SCT260,0.00,32.00,VWS V14.01,2013-02-04 15:29:00,
2013-02-04 07:34:00,21.2,18.2,30.28,SW,236,0.0,0.0,88,0.00,,SCT260,0.00,51.00,VWS V14.01,2013-02-04 15:34:00,
2013-02-04 07:39:00,21.7,18.4,30.28,SW,236,0.0,0.0,87,0.00,,SCT260,0.00,84.00,VWS V14.01,2013-02-04 15:39:00,
2013-02-04 07:44:00,23.8,20.8,30.28,SW,236,0.0,0.0,88,0.00,,SCT260,0.00,95.00,VWS V14.01,2013-02-04 15:44:00,
2013-02-04 07:49:00,24.7,21.1,30.28,SW,236,0.0,0.0,86,0.00,,SCT260,0.00,113.00,VWS V14.01,2013-02-04 15:49:00,
2013-02-04 07:54:00,26.4,22.8,30.28,SW,236,0.0,1.0,86,0.00,,SCT260,0.00,113.00,VWS V14.01,2013-02-04 15:54:00,
2013-02-04 07:59:00,27.8,23.9,30.28,SW,236,0.0,1.0,85,0.00,,SCT260,0.00,125.00,VWS V14.01,2013-02-04 15:59:00,
2013-02-04 08:04:00,29.0,24.8,30.28,SW,236,0.0,0.0,84,0.00,,SCT260,0.00,33.00,VWS V14.01,2013-02-04 16:04:00,
2013-02-04 08:09:00,28.8,23.7,30.27,SW,236,0.0,0.0,81,0.00,,SCT260,0.00,51.00,VWS V14.01,2013-02-04 16:09:00,
2013-02-04 08:14:00,28.4,23.6,30.27,SW,236,0.0,0.0,82,0.00,,SCT260,0.00,46.00,VWS V14.01,2013-02-04 16:14:00,
2013-02-04 08:19:00,29.1,24.6,30.28,SW,236,0.0,1.0,83,0.00,,SCT260,0.00,190.00,VWS V14.01,2013-02-04 16:19:00,
2013-02-04 08:24:00,30.0,25.2,30.28,SW,236,1.0,2.0,82,0.00,,SCT260,0.00,200.00,VWS V14.01,2013-02-04 16:24:00,
2013-02-04 08:29:00,31.8,26.9,30.28,NNW,346,0.0,1.0,82,0.00,,SCT260,0.00,220.00,VWS V14.01,2013-02-04 16:29:00,
2013-02-04 08:34:00,33.3,26.9,30.27,NNW,346,0.0,1.0,77,0.00,,SCT260,0.00,214.00,VWS V14.01,2013-02-04 16:34:00,
2013-02-04 08:39:00,33.7,26.6,30.27,NNW,346,0.0,1.0,75,0.00,,SCT260,0.00,230.00,VWS V14.01,2013-02-04 16:39:00,
2013-02-04 08:44:00,35.1,27.7,30.27,NNW,346,0.0,1.0,74,0.00,,SCT260,0.00,243.00,VWS V14.01,2013-02-04 16:44:00,
2013-02-04 08:49:00,36.1,27.6,30.27,NNW,346,0.0,0.0,71,0.00,,SCT260,0.00,258.00,VWS V14.01,2013-02-04 16:49:00,
2013-02-04 08:54:00,36.9,27.3,30.27,NNW,346,0.0,0.0,68,0.00,,SCT260,0.00,274.00,VWS V14.01,2013-02-04 16:54:00,
2013-02-04 08:59:00,35.7,26.5,30.28,NNW,346,0.0,1.0,69,0.00,,SCT260,0.00,287.00,VWS V14.01,2013-02-04 16:59:00,
2013-02-04 09:04:00,36.4,27.2,30.28,NNW,346,1.0,2.0,69,0.00,,SCT260,0.00,295.00,VWS V14.01,2013-02-04 17:04:00,
2013-02-04 09:09:00,37.0,27.4,30.28,NE,40,3.0,5.0,68,0.00,,SCT260,0.00,309.00,VWS V14.01,2013-02-04 17:09:00,
2013-02-04 09:14:00,37.5,27.2,30.28,NNE,32,3.0,4.0,66,0.00,,SCT260,0.00,304.00,VWS V14.01,2013-02-04 17:14:00,
2013-02-04 09:19:00,38.3,27.6,30.29,NE,42,1.0,3.0,65,0.00,,SCT260,0.00,334.00,VWS V14.01,2013-02-04 17:19:00,
2013-02-04 09:24:00,38.9,27.8,30.28,NE,54,0.0,4.0,64,0.00,,SCT260,0.00,346.00,VWS V14.01,2013-02-04 17:24:00,
2013-02-04 09:29:00,39.1,28.0,30.28,ENE,68,2.0,4.0,64,0.00,,SCT260,0.00,359.00,VWS V14.01,2013-02-04 17:29:00,
2013-02-04 09:34:00,39.6,28.8,30.29,East,91,0.0,3.0,65,0.00,,SCT260,0.00,371.00,VWS V14.01,2013-02-04 17:34:00,
2013-02-04 09:39:00,40.5,28.5,30.29,NE,55,3.0,3.0,62,0.00,,SCT260,0.00,381.00,VWS V14.01,2013-02-04 17:39:00,
2013-02-04 09:44:00,41.4,29.0,30.29,NE,55,0.0,2.0,61,0.00,,SCT260,0.00,392.00,VWS V14.01,2013-02-04 17:44:00,
2013-02-04 09:49:00,40.7,27.9,30.29,NNE,31,1.0,3.0,60,0.00,,SCT260,0.00,403.00,VWS V14.01,2013-02-04 17:49:00,
2013-02-04 09:54:00,41.0,28.2,30.29,NE,34,1.0,4.0,60,0.00,,SCT260,0.00,415.00,VWS V14.01,2013-02-04 17:54:00,
2013-02-04 09:59:00,41.5,28.3,30.29,North,360,1.0,3.0,59,0.00,,SCT260,0.00,425.00,VWS V14.01,2013-02-04 17:59:00,
2013-02-04 10:04:00,42.8,28.6,30.29,East,82,2.0,2.0,57,0.00,,SCT260,0.00,436.00,VWS V14.01,2013-02-04 18:04:00,
2013-02-04 10:09:00,44.1,29.0,30.29,East,96,2.0,2.0,55,0.00,,SCT260,0.00,441.00,VWS V14.01,2013-02-04 18:09:00,
2013-02-04 10:14:00,44.1,28.5,30.28,NE,56,2.0,4.0,54,0.00,,SCT260,0.00,455.00,VWS V14.01,2013-02-04 18:14:00,
2013-02-04 10:19:00,43.3,27.8,30.28,ENE,74,3.0,3.0,54,0.00,,SCT260,0.00,464.00,VWS V14.01,2013-02-04 18:19:00,
2013-02-04 10:24:00,44.0,28.0,30.28,NE,56,1.0,4.0,53,0.00,,SCT260,0.00,473.00,VWS V14.01,2013-02-04 18:24:00,
2013-02-04 10:29:00,45.6,28.5,30.28,East,98,5.0,5.0,51,0.00,,SCT260,0.00,483.00,VWS V14.01,2013-02-04 18:29:00,
2013-02-04 10:34:00,46.2,27.6,30.28,East,91,0.0,3.0,48,0.00,,SCT260,0.00,490.00,VWS V14.01,2013-02-04 18:34:00,
2013-02-04 10:39:00,45.8,27.7,30.27,ENE,63,0.0,3.0,49,0.00,,SCT260,0.00,499.00,VWS V14.01,2013-02-04 18:39:00,
2013-02-04 10:44:00,46.4,28.3,30.27,East,86,1.0,2.0,49,0.00,,SCT260,0.00,503.00,VWS V14.01,2013-02-04 18:44:00,
2013-02-04 10:49:00,46.1,27.5,30.27,ENE,62,2.0,4.0,48,0.00,,SCT260,0.00,513.00,VWS V14.01,2013-02-04 18:49:00,
2013-02-04 10:54:00,46.7,28.1,30.27,ENE,67,0.0,5.0,48,0.00,,SCT260,0.00,524.00,VWS V14.01,2013-02-04 18:54:00,
2013-02-04 10:59:00,47.2,28.0,30.27,ESE,117,1.0,4.0,47,0.00,,SCT260,0.00,524.00,VWS V14.01,2013-02-04 18:59:00,
2013-02-04 11:04:00,47.9,27.6,30.27,ENE,65,0.0,3.0,45,0.00,,SCT260,0.00,531.00,VWS V14.01,2013-02-04 19:04:00,
2013-02-04 11:09:00,46.8,27.6,30.27,East,91,2.0,5.0,47,0.00,,SCT260,0.00,524.00,VWS V14.01,2013-02-04 19:09:00,
2013-02-04 11:14:00,48.3,28.5,30.27,SE,131,2.0,4.0,46,0.00,,SCT260,0.00,534.00,VWS V14.01,2013-02-04 19:14:00,
2013-02-04 11:19:00,47.8,28.0,30.26,SE,126,0.0,2.0,46,0.00,,SCT260,0.00,548.00,VWS V14.01,2013-02-04 19:19:00,
2013-02-04 11:24:00,48.9,28.0,30.26,ESE,123,0.0,4.0,44,0.00,,SCT260,0.00,552.00,VWS V14.01,2013-02-04 19:24:00,
2013-02-04 11:29:00,48.8,29.0,30.26,East,89,1.0,1.0,46,0.00,,SCT260,0.00,557.00,VWS V14.01,2013-02-04 19:29:00,
2013-02-04 11:34:00,49.4,27.9,30.25,SE,143,0.0,4.0,43,0.00,,SCT260,0.00,568.00,VWS V14.01,2013-02-04 19:34:00,
2013-02-04 11:39:00,49.8,28.8,30.25,East,96,1.0,4.0,44,0.00,,SCT260,0.00,564.00,VWS V14.01,2013-02-04 19:39:00,
2013-02-04 11:44:00,50.3,28.1,30.24,ESE,117,1.0,3.0,42,0.00,,SCT260,0.00,570.00,VWS V14.01,2013-02-04 19:44:00,
2013-02-04 11:49:00,50.9,28.6,30.24,East,96,0.0,4.0,42,0.00,,SCT260,0.00,559.00,VWS V14.01,2013-02-04 19:49:00,
2013-02-04 11:54:00,51.1,28.2,30.24,SE,138,1.0,7.0,41,0.00,,SCT260,0.00,552.00,VWS V14.01,2013-02-04 19:54:00,
2013-02-04 11:59:00,51.2,28.3,30.23,East,84,0.0,5.0,41,0.00,,SCT260,0.00,554.00,VWS V14.01,2013-02-04 19:59:00,
2013-02-04 12:04:00,52.3,28.7,30.23,ESE,119,1.0,5.0,40,0.00,,BKN260,0.00,577.00,VWS V14.01,2013-02-04 20:04:00,
2013-02-04 12:09:00,52.9,28.6,30.22,SSE,156,0.0,5.0,39,0.00,,BKN260,0.00,587.00,VWS V14.01,2013-02-04 20:09:00,
2013-02-04 12:14:00,52.2,28.0,30.22,SE,144,3.0,6.0,39,0.00,,BKN260,0.00,584.00,VWS V14.01,2013-02-04 20:14:00,
2013-02-04 12:19:00,52.8,28.5,30.22,SSE,165,0.0,6.0,39,0.00,,BKN260,0.00,589.00,VWS V14.01,2013-02-04 20:19:00,
2013-02-04 12:24:00,52.6,28.4,30.22,ESE,118,1.0,6.0,39,0.00,,BKN260,0.00,585.00,VWS V14.01,2013-02-04 20:24:00,
2013-02-04 12:29:00,52.4,28.8,30.21,ESE,107,1.0,1.0,40,0.00,,BKN260,0.00,541.00,VWS V14.01,2013-02-04 20:29:00,
2013-02-04 12:34:00,53.2,28.9,30.21,South,190,2.0,5.0,39,0.00,,BKN260,0.00,555.00,VWS V14.01,2013-02-04 20:34:00,
2013-02-04 12:39:00,53.0,28.1,30.21,ENE,70,3.0,5.0,38,0.00,,BKN260,0.00,506.00,VWS V14.01,2013-02-04 20:39:00,
2013-02-04 12:44:00,52.2,28.0,30.21,ESE,117,2.0,4.0,39,0.00,,BKN260,0.00,515.00,VWS V14.01,2013-02-04 20:44:00,
2013-02-04 12:49:00,54.3,28.6,30.20,ESE,121,0.0,4.0,37,0.00,,BKN260,0.00,568.00,VWS V14.01,2013-02-04 20:49:00,
2013-02-04 12:54:00,54.9,28.5,30.20,ESE,102,2.0,7.0,36,0.00,,BKN260,0.00,550.00,VWS V14.01,2013-02-04 20:54:00,
2013-02-04 12:59:00,54.7,28.3,30.19,SSE,159,0.0,4.0,36,0.00,,BKN260,0.00,536.00,VWS V14.01,2013-02-04 20:59:00,
2013-02-04 13:04:00,55.5,27.6,30.19,West,259,1.0,3.0,34,0.00,,BKN260,0.00,534.00,VWS V14.01,2013-02-04 21:04:00,
2013-02-04 13:09:00,55.9,28.0,30.19,SE,124,4.0,5.0,34,0.00,,BKN260,0.00,538.00,VWS V14.01,2013-02-04 21:09:00,
2013-02-04 13:15:00,55.7,27.8,30.18,ESE,106,3.0,4.0,34,0.00,,BKN260,0.00,531.00,VWS V14.01,2013-02-04 21:15:00,
2013-02-04 13:20:00,56.0,27.3,30.18,East,92,1.0,7.0,33,0.00,,BKN260,0.00,434.00,VWS V14.01,2013-02-04 21:20:00,
2013-02-04 13:25:00,54.9,27.1,30.18,SE,138,0.0,7.0,34,0.00,,BKN260,0.00,559.00,VWS V14.01,2013-02-04 21:25:00,
2013-02-04 13:30:00,55.5,26.9,30.18,SSE,151,3.0,5.0,33,0.00,,BKN260,0.00,445.00,VWS V14.01,2013-02-04 21:30:00,
2013-02-04 13:35:00,56.0,28.0,30.17,SE,142,4.0,8.0,34,0.00,,BKN260,0.00,480.00,VWS V14.01,2013-02-04 21:35:00,
2013-02-04 13:40:00,55.7,27.8,30.17,East,99,1.0,4.0,34,0.00,,BKN260,0.00,438.00,VWS V14.01,2013-02-04 21:40:00,
2013-02-04 13:45:00,55.8,27.1,30.17,SE,142,2.0,2.0,33,0.00,,BKN260,0.00,468.00,VWS V14.01,2013-02-04 21:45:00,
2013-02-04 13:50:00,56.0,27.3,30.16,ESE,121,0.0,5.0,33,0.00,,BKN260,0.00,459.00,VWS V14.01,2013-02-04 21:50:00,
2013-02-04 13:55:00,56.4,26.2,30.16,SSE,155,4.0,6.0,31,0.00,,BKN260,0.00,499.00,VWS V14.01,2013-02-04 21:55:00,
2013-02-04 14:00:00,56.4,26.2,30.16,South,181,0.0,6.0,31,0.00,,BKN260,0.00,504.00,VWS V14.01,2013-02-04 22:00:00,
2013-02-04 14:05:00,56.6,26.3,30.16,SE,136,3.0,7.0,31,0.00,,BKN260,0.00,425.00,VWS V14.01,2013-02-04 22:05:00,
2013-02-04 14:10:00,56.7,26.4,30.15,SSE,159,0.0,5.0,31,0.00,,BKN260,0.00,471.00,VWS V14.01,2013-02-04 22:10:00,
2013-02-04 14:15:00,57.7,26.5,30.15,SE,144,4.0,4.0,30,0.00,,BKN260,0.00,494.00,VWS V14.01,2013-02-04 22:15:00,
2013-02-04 14:20:00,57.9,26.7,30.15,SSE,167,0.0,5.0,30,0.00,,BKN260,0.00,464.00,VWS V14.01,2013-02-04 22:20:00,
2013-02-04 14:25:00,57.3,26.2,30.15,SE,144,2.0,7.0,30,0.00,,BKN260,0.00,410.00,VWS V14.01,2013-02-04 22:25:00,
2013-02-04 14:30:00,57.0,25.9,30.14,SSW,199,3.0,5.0,30,0.00,,BKN260,0.00,394.00,VWS V14.01,2013-02-04 22:30:00,
2013-02-04 14:35:00,57.2,26.1,30.14,South,171,0.0,4.0,30,0.00,,BKN260,0.00,371.00,VWS V14.01,2013-02-04 22:35:00,
2013-02-04 14:40:00,58.0,26.0,30.15,South,187,2.0,3.0,29,0.00,,BKN260,0.00,404.00,VWS V14.01,2013-02-04 22:40:00,
2013-02-04 14:45:00,58.0,26.0,30.14,SSE,168,1.0,6.0,29,0.00,,BKN260,0.00,406.00,VWS V14.01,2013-02-04 22:45:00,
2013-02-04 14:50:00,58.1,26.0,30.14,East,92,2.0,5.0,29,0.00,,BKN260,0.00,369.00,VWS V14.01,2013-02-04 22:50:00,
2013-02-04 14:55:00,57.8,26.6,30.14,ESE,109,0.0,3.0,30,0.00,,BKN260,0.00,390.00,VWS V14.01,2013-02-04 22:55:00,
2013-02-04 15:00:00,58.0,26.8,30.14,SE,134,1.0,5.0,30,0.00,,BKN260,0.00,346.00,VWS V14.01,2013-02-04 23:00:00,
2013-02-04 15:05:00,58.0,26.8,30.14,SE,142,0.0,7.0,30,0.00,,BKN260,0.00,339.00,VWS V14.01,2013-02-04 23:05:00,
2013-02-04 15:10:00,58.1,26.9,30.14,East,79,3.0,6.0,30,0.00,,BKN260,0.00,315.00,VWS V14.01,2013-02-04 23:10:00,
2013-02-04 15:15:00,58.2,26.1,30.14,SE,146,2.0,5.0,29,0.00,,BKN260,0.00,288.00,VWS V14.01,2013-02-04 23:15:00,
2013-02-04 15:20:00,58.2,26.1,30.13,ESE,113,2.0,5.0,29,0.00,,BKN260,0.00,292.00,VWS V14.01,2013-02-04 23:20:00,
2013-02-04 15:25:00,57.8,26.6,30.13,SE,128,0.0,4.0,30,0.00,,BKN260,0.00,264.00,VWS V14.01,2013-02-04 23:25:00,
2013-02-04 15:30:00,57.8,25.8,30.13,East,80,5.0,5.0,29,0.00,,BKN260,0.00,211.00,VWS V14.01,2013-02-04 23:30:00,
2013-02-04 15:35:00,57.4,25.4,30.13,SE,126,3.0,5.0,29,0.00,,BKN260,0.00,232.00,VWS V14.01,2013-02-04 23:35:00,
2013-02-04 15:40:00,57.5,25.5,30.13,ESE,112,0.0,3.0,29,0.00,,BKN260,0.00,229.00,VWS V14.01,2013-02-04 23:40:00,
2013-02-04 15:45:00,57.5,25.5,30.13,SE,130,2.0,6.0,29,0.00,,BKN260,0.00,221.00,VWS V14.01,2013-02-04 23:45:00,
2013-02-04 15:50:00,57.2,25.2,30.12,ESE,109,3.0,4.0,29,0.00,,BKN260,0.00,207.00,VWS V14.01,2013-02-04 23:50:00,
2013-02-04 15:55:00,57.8,24.9,30.12,ESE,123,2.0,7.0,28,0.00,,BKN260,0.00,197.00,VWS V14.01,2013-02-04 23:55:00,
2013-02-04 16:00:00,58.1,25.2,30.12,SE,128,2.0,3.0,28,0.00,,BKN260,0.00,183.00,VWS V14.01,2013-02-05 00:00:00,
2013-02-04 16:05:00,57.9,25.0,30.12,SSE,162,2.0,5.0,28,0.00,,OVC250,0.00,163.00,VWS V14.01,2013-02-05 00:05:00,
2013-02-04 16:10:00,57.7,24.8,30.12,SE,135,2.0,5.0,28,0.00,,OVC250,0.00,142.00,VWS V14.01,2013-02-05 00:10:00,
2013-02-04 16:15:00,57.6,23.9,30.11,SE,142,4.0,5.0,27,0.00,,OVC250,0.00,127.00,VWS V14.01,2013-02-05 00:15:00,
2013-02-04 16:20:00,57.2,24.4,30.11,ESE,115,2.0,5.0,28,0.00,,OVC250,0.00,111.00,VWS V14.01,2013-02-05 00:20:00,
2013-02-04 16:25:00,57.1,24.3,30.11,SE,128,1.0,3.0,28,0.00,,OVC250,0.00,98.00,VWS V14.01,2013-02-05 00:25:00,
2013-02-04 16:30:00,57.0,24.2,30.11,SE,146,1.0,4.0,28,0.00,,OVC250,0.00,83.00,VWS V14.01,2013-02-05 00:30:00,
2013-02-04 16:35:00,56.7,24.0,30.11,SE,142,3.0,5.0,28,0.00,,OVC250,0.00,63.00,VWS V14.01,2013-02-05 00:35:00,
2013-02-04 16:40:00,56.3,24.5,30.11,SE,133,2.0,3.0,29,0.00,,OVC250,0.00,54.00,VWS V14.01,2013-02-05 00:40:00,
2013-02-04 16:45:00,56.1,24.3,30.11,SE,133,1.0,2.0,29,0.00,,OVC250,0.00,40.00,VWS V14.01,2013-02-05 00:45:00,
2013-02-04 16:50:00,55.6,24.7,30.11,SE,133,2.0,2.0,30,0.00,,OVC250,0.00,30.00,VWS V14.01,2013-02-05 00:50:00,
2013-02-04 16:55:00,55.4,24.5,30.11,SE,133,0.0,2.0,30,0.00,,OVC250,0.00,25.00,VWS V14.01,2013-02-05 00:55:00,
2013-02-04 17:00:00,55.4,24.5,30.11,SE,133,0.0,0.0,30,0.00,,OVC250,0.00,21.00,VWS V14.01,2013-02-05 01:00:00,
2013-02-04 17:05:00,55.4,24.5,30.11,SE,133,0.0,0.0,30,0.00,,CLR,0.00,16.00,VWS V14.01,2013-02-05 01:05:00,
2013-02-04 17:10:00,54.9,24.1,30.11,SE,133,0.0,0.0,30,0.00,,CLR,0.00,11.00,VWS V14.01,2013-02-05 01:10:00,
2013-02-04 17:15:00,54.6,24.6,30.11,SE,133,0.0,0.0,31,0.00,,CLR,0.00,5.00,VWS V14.01,2013-02-05 01:15:00,
2013-02-04 17:20:00,54.4,24.4,30.11,SE,133,0.0,0.0,31,0.00,,CLR,0.00,0.00,VWS V14.01,2013-02-05 01:20:00,
2013-02-04 17:25:00,54.2,24.2,30.11,SE,133,0.0,0.0,31,0.00,,CLR,0.00,0.00,VWS V14.01,2013-02-05 01:25:00,
2013-02-04 17:30:00,53.6,23.7,30.11,SE,133,0.0,0.0,31,0.00,,CLR,0.00,0.00,VWS V14.01,2013-02-05 01:30:00,
2013-02-04 17:35:00,53.1,24.0,30.11,SE,133,0.0,0.0,32,0.00,,CLR,0.00,0.00,VWS V14.01,2013-02-05 01:35:00,
2013-02-04 17:40:00,52.3,23.3,30.11,SE,133,0.0,0.0,32,0.00,,CLR,0.00,0.00,VWS V14.01,2013-02-05 01:40:00,
2013-02-04 17:45:00,51.6,23.5,30.11,SE,133,0.0,0.0,33,0.00,,CLR,0.00,0.00,VWS V14.01,2013-02-05 01:45:00,
2013-02-04 17:50:00,50.9,22.8,30.11,SE,133,1.0,1.0,33,0.00,,CLR,0.00,0.00,VWS V14.01,2013-02-05 01:50:00,
2013-02-04 17:55:00,50.2,23.6,30.11,ESE,105,0.0,1.0,35,0.00,,CLR,0.00,0.00,VWS V14.01,2013-02-05 01:55:00,
2013-02-04 18:00:00,49.6,23.1,30.12,ESE,105,0.0,0.0,35,0.00,,BKN200,0.00,0.00,VWS V14.01,2013-02-05 02:00:00,
2013-02-04 18:05:00,49.0,23.2,30.12,ESE,105,0.0,0.0,36,0.00,,BKN200,0.00,0.00,VWS V14.01,2013-02-05 02:05:00,
2013-02-04 18:10:00,48.5,23.4,30.12,ESE,105,0.0,0.0,37,0.00,,BKN200,0.00,0.00,VWS V14.01,2013-02-05 02:10:00,
2013-02-04 18:15:00,48.0,23.6,30.12,ESE,105,0.0,0.0,38,0.00,,BKN200,0.00,0.00,VWS V14.01,2013-02-05 02:15:00,
2013-02-04 18:20:00,47.7,23.4,30.12,ESE,105,0.0,1.0,38,0.00,,BKN200,0.00,0.00,VWS V14.01,2013-02-05 02:20:00,
2013-02-04 18:25:00,47.1,23.4,30.12,ESE,105,1.0,1.0,39,0.00,,BKN200,0.00,0.00,VWS V14.01,2013-02-05 02:25:00,
2013-02-04 18:30:00,46.0,23.6,30.12,East,79,2.0,3.0,41,0.00,,BKN200,0.00,0.00,VWS V14.01,2013-02-05 02:30:00,
2013-02-04 18:35:00,45.2,24.0,30.12,ENE,78,0.0,1.0,43,0.00,,BKN200,0.00,0.00,VWS V14.01,2013-02-05 02:35:00,
2013-02-04 18:40:00,45.0,24.4,30.12,ENE,78,0.0,0.0,44,0.00,,BKN200,0.00,0.00,VWS V14.01,2013-02-05 02:40:00,
2013-02-04 18:45:00,44.9,25.4,30.12,ENE,78,0.0,0.0,46,0.00,,BKN200,0.00,0.00,VWS V14.01,2013-02-05 02:45:00,
2013-02-04 18:50:00,44.5,25.0,30.12,ENE,78,0.0,0.0,46,0.00,,BKN200,0.00,0.00,VWS V14.01,2013-02-05 02:50:00,
2013-02-04 18:55:00,44.0,25.1,30.12,ENE,78,0.0,1.0,47,0.00,,BKN200,0.00,0.00,VWS V14.01,2013-02-05 02:55:00,
2013-02-04 19:00:00,43.6,25.2,30.12,ENE,78,1.0,1.0,48,0.00,,BKN200,0.00,0.00,VWS V14.01,2013-02-05 03:00:00,
2013-02-04 19:05:00,43.1,25.3,30.12,ENE,78,0.0,1.0,49,0.00,,SCT200,0.00,0.00,VWS V14.01,2013-02-05 03:05:00,
2013-02-04 19:10:00,42.9,25.1,30.12,ENE,78,0.0,0.0,49,0.00,,SCT200,0.00,0.00,VWS V14.01,2013-02-05 03:10:00,
2013-02-04 19:15:00,42.8,25.0,30.12,ENE,78,0.0,0.0,49,0.00,,SCT200,0.00,0.00,VWS V14.01,2013-02-05 03:15:00,
2013-02-04 19:20:00,42.7,25.4,30.12,ENE,78,0.0,0.0,50,0.00,,SCT200,0.00,0.00,VWS V14.01,2013-02-05 03:20:00,
2013-02-04 19:25:00,42.4,25.6,30.13,ENE,78,0.0,0.0,51,0.00,,SCT200,0.00,0.00,VWS V14.01,2013-02-05 03:25:00,
2013-02-04 19:30:00,42.2,25.4,30.12,ENE,78,0.0,0.0,51,0.00,,SCT200,0.00,0.00,VWS V14.01,2013-02-05 03:30:00,
2013-02-04 19:35:00,41.9,25.1,30.12,ENE,78,0.0,0.0,51,0.00,,SCT200,0.00,0.00,VWS V14.01,2013-02-05 03:35:00,
2013-02-04 19:40:00,41.5,25.2,30.13,ENE,78,0.0,0.0,52,0.00,,SCT200,0.00,0.00,VWS V14.01,2013-02-05 03:40:00,
2013-02-04 19:45:00,41.1,24.8,30.13,ENE,78,0.0,0.0,52,0.00,,SCT200,0.00,0.00,VWS V14.01,2013-02-05 03:45:00,
2013-02-04 19:50:00,40.6,24.8,30.13,ENE,78,1.0,1.0,53,0.00,,SCT200,0.00,0.00,VWS V14.01,2013-02-05 03:50:00,
2013-02-04 19:55:00,39.9,23.7,30.13,WNW,287,2.0,2.0,52,0.00,,SCT200,0.00,0.00,VWS V14.01,2013-02-05 03:55:00,
2013-02-04 20:01:00,39.2,23.1,30.13,WNW,287,2.0,2.0,52,0.00,,FEW200,0.00,0.00,VWS V14.01,2013-02-05 04:01:00,
2013-02-04 20:05:00,38.8,23.1,30.13,WNW,287,1.0,2.0,53,0.00,,FEW200,0.00,0.00,VWS V14.01,2013-02-05 04:05:00,
2013-02-04 20:10:00,38.3,23.1,30.13,WNW,287,0.0,0.0,54,0.00,,FEW200,0.00,0.00,VWS V14.01,2013-02-05 04:10:00,
2013-02-04 20:16:00,37.8,23.1,30.13,WNW,287,0.0,0.0,55,0.00,,FEW200,0.00,0.00,VWS V14.01,2013-02-05 04:16:00,
2013-02-04 20:21:00,37.3,23.1,30.13,WNW,287,0.0,0.0,56,0.00,,FEW200,0.00,0.00,VWS V14.01,2013-02-05 04:21:00,
2013-02-04 20:26:00,37.1,23.3,30.13,WNW,287,0.0,0.0,57,0.00,,FEW200,0.00,0.00,VWS V14.01,2013-02-05 04:26:00,
2013-02-04 20:31:00,36.9,23.1,30.13,WNW,287,0.0,0.0,57,0.00,,FEW200,0.00,0.00,VWS V14.01,2013-02-05 04:31:00,
2013-02-04 20:36:00,36.1,22.8,30.13,WNW,287,2.0,2.0,58,0.00,,FEW200,0.00,0.00,VWS V14.01,2013-02-05 04:36:00,
2013-02-04 20:41:00,35.7,23.2,30.14,WNW,287,0.0,0.0,60,0.00,,FEW200,0.00,0.00,VWS V14.01,2013-02-05 04:41:00,
2013-02-04 20:46:00,35.7,23.2,30.13,WNW,287,0.0,0.0,60,0.00,,FEW200,0.00,0.00,VWS V14.01,2013-02-05 04:46:00,
2013-02-04 20:51:00,35.6,22.7,30.13,WNW,287,0.0,0.0,59,0.00,,FEW200,0.00,0.00,VWS V14.01,2013-02-05 04:51:00,
2013-02-04 20:56:00,35.4,22.5,30.13,WNW,287,0.0,0.0,59,0.00,,FEW200,0.00,0.00,VWS V14.01,2013-02-05 04:56:00,
2013-02-04 21:00:00,35.3,22.8,30.14,WNW,287,1.0,1.0,60,0.00,,FEW200,0.00,0.00,VWS V14.01,2013-02-05 05:00:00,
2013-02-04 21:05:00,35.0,22.5,30.13,WNW,287,0.0,0.0,60,0.00,,CLR,0.00,0.00,VWS V14.01,2013-02-05 05:05:00,
2013-02-04 21:10:00,34.6,22.5,30.14,WNW,291,2.0,2.0,61,0.00,,CLR,0.00,0.00,VWS V14.01,2013-02-05 05:10:00,
2013-02-04 21:15:00,34.3,22.6,30.14,WNW,291,0.0,2.0,62,0.00,,CLR,0.00,0.00,VWS V14.01,2013-02-05 05:15:00,
2013-02-04 21:20:00,34.2,22.5,30.13,WNW,291,0.0,0.0,62,0.00,,CLR,0.00,0.00,VWS V14.01,2013-02-05 05:20:00,
2013-02-04 21:26:00,34.1,22.1,30.13,WNW,291,0.0,0.0,61,0.00,,CLR,0.00,0.00,VWS V14.01,2013-02-05 05:26:00,
2013-02-04 21:31:00,34.1,22.1,30.13,WNW,291,0.0,0.0,61,0.00,,CLR,0.00,0.00,VWS V14.01,2013-02-05 05:31:00,
2013-02-04 21:36:00,33.9,21.9,30.13,WNW,291,0.0,0.0,61,0.00,,CLR,0.00,0.00,VWS V14.01,2013-02-05 05:36:00,
2013-02-04 21:41:00,33.8,21.8,30.13,WNW,291,0.0,0.0,61,0.00,,CLR,0.00,0.00,VWS V14.01,2013-02-05 05:41:00,
2013-02-04 21:46:00,33.6,22.0,30.12,WNW,291,0.0,0.0,62,0.00,,CLR,0.00,0.00,VWS V14.01,2013-02-05 05:46:00,
2013-02-04 21:51:00,33.4,21.8,30.12,WNW,291,0.0,0.0,62,0.00,,CLR,0.00,0.00,VWS V14.01,2013-02-05 05:51:00,
2013-02-04 21:56:00,33.3,22.1,30.12,WNW,291,0.0,0.0,63,0.00,,CLR,0.00,0.00,VWS V14.01,2013-02-05 05:56:00,
2013-02-04 22:01:00,33.2,22.4,30.12,WNW,291,0.0,0.0,64,0.00,,CLR,0.00,0.00,VWS V14.01,2013-02-05 06:01:00,
2013-02-04 22:06:00,33.0,22.2,30.12,WNW,291,0.0,0.0,64,0.00,,CLR,0.00,0.00,VWS V14.01,2013-02-05 06:06:00,
2013-02-04 22:11:00,33.0,22.2,30.12,WNW,291,0.0,0.0,64,0.00,,CLR,0.00,0.00,VWS V14.01,2013-02-05 06:11:00,
2013-02-04 22:16:00,33.0,22.5,30.12,WNW,294,3.0,3.0,65,0.00,,CLR,0.00,0.00,VWS V14.01,2013-02-05 06:16:00,
2013-02-04 22:21:00,33.2,22.7,30.12,NW,317,0.0,1.0,65,0.00,,CLR,0.00,0.00,VWS V14.01,2013-02-05 06:21:00,
2013-02-04 22:26:00,33.3,22.5,30.12,NW,317,0.0,0.0,64,0.00,,CLR,0.00,0.00,VWS V14.01,2013-02-05 06:26:00,
2013-02-04 22:31:00,33.3,22.5,30.12,NW,317,0.0,1.0,64,0.00,,CLR,0.00,0.00,VWS V14.01,2013-02-05 06:31:00,
2013-02-04 22:36:00,33.4,22.2,30.12,NW,317,0.0,0.0,63,0.00,,CLR,0.00,0.00,VWS V14.01,2013-02-05 06:36:00,
2013-02-04 22:41:00,33.3,22.1,30.12,NW,317,0.0,0.0,63,0.00,,CLR,0.00,0.00,VWS V14.01,2013-02-05 06:41:00,
2013-02-04 22:46:00,33.3,22.1,30.12,NW,317,2.0,3.0,63,0.00,,CLR,0.00,0.00,VWS V14.01,2013-02-05 06:46:00,
2013-02-04 22:51:00,33.3,22.1,30.12,NW,317,1.0,2.0,63,0.00,,CLR,0.00,0.00,VWS V14.01,2013-02-05 06:51:00,
2013-02-04 22:56:00,33.2,22.0,30.12,NW,317,1.0,1.0,63,0.00,,CLR,0.00,0.00,VWS V14.01,2013-02-05 06:56:00,
2013-02-04 23:01:00,33.4,22.5,30.12,NW,317,1.0,2.0,64,0.00,,CLR,0.00,0.00,VWS V14.01,2013-02-05 07:01:00,
2013-02-04 23:06:00,33.6,22.4,30.12,NW,320,2.0,2.0,63,0.00,,CLR,0.00,0.00,VWS V14.01,2013-02-05 07:06:00,
2013-02-04 23:11:00,33.7,22.1,30.12,NW,320,1.0,2.0,62,0.00,,CLR,0.00,0.00,VWS V14.01,2013-02-05 07:11:00,
2013-02-04 23:16:00,33.7,22.5,30.12,NW,309,4.0,4.0,63,0.00,,CLR,0.00,0.00,VWS V14.01,2013-02-05 07:16:00,
2013-02-04 23:21:00,34.0,22.7,30.12,NW,305,1.0,4.0,63,0.00,,CLR,0.00,0.00,VWS V14.01,2013-02-05 07:21:00,
2013-02-04 23:26:00,34.2,22.5,30.12,NW,305,0.0,0.0,62,0.00,,CLR,0.00,0.00,VWS V14.01,2013-02-05 07:26:00,
2013-02-04 23:31:00,34.2,22.2,30.12,NW,305,0.0,1.0,61,0.00,,CLR,0.00,0.00,VWS V14.01,2013-02-05 07:31:00,
2013-02-04 23:36:00,34.1,22.5,30.12,NW,305,1.0,1.0,62,0.00,,CLR,0.00,0.00,VWS V14.01,2013-02-05 07:36:00,
2013-02-04 23:41:00,33.9,22.3,30.12,NW,305,0.0,0.0,62,0.00,,CLR,0.00,0.00,VWS V14.01,2013-02-05 07:41:00,
2013-02-04 23:46:00,33.9,22.3,30.12,NW,305,0.0,0.0,62,0.00,,CLR,0.00,0.00,VWS V14.01,2013-02-05 07:46:00,
2013-02-04 23:51:00,33.8,22.2,30.12,NW,305,0.0,0.0,62,0.00,,CLR,0.00,0.00,VWS V14.01,2013-02-05 07:51:00,
2013-02-04 23:56:00,33.7,22.1,30.11,NW,305,0.0,0.0,62,0.00,,CLR,0.00,0.00,VWS V14.01,2013-02-05 07:56:00,